When you browse on this site, cookies collect data to enhance your experience and personalize the content and advertising you see.
Visit our Privacy Policy to learn more. By continuing to use the site, you agree to this use of cookies and data.
  • In Österreich
  • Länderverzeichnis
  • Für 7 Tage
  • Wassertemperatur
  • Satellitenkarten
  • Wetterkarte
  • News
  • Widgets
  • user-avatar
    Anmelden

    Stündliche Wetter Bachawalpur

    Heute, 14 Dezember, Freitag

    Zeit Temperatur Niederschläge Wind Luftdruck Luftfeuchtigkeit
    00:00 +15°C° 0 mm 1 m/S 756 mmHg 47%
    01:00 +15°C° 0 mm 1 m/S 756 mmHg 49%
    02:00 +14°C° 0 mm 1 m/S 756 mmHg 51%
    03:00 +14°C° 0 mm 1 m/S 756 mmHg 53%
    04:00 +14°C° 0 mm 1 m/S 757 mmHg 55%
    05:00 +12°C° 0 mm 0 m/S 756 mmHg 55%
    06:00 +13°C° 0 mm 0 m/S 757 mmHg 53%
    07:00 +14°C° 0 mm 0 m/S 757 mmHg 51%
    08:00 +14°C° 0 mm 0 m/S 758 mmHg 49%
    09:00 +16°C° 0 mm 0 m/S 758 mmHg 44%
    10:00 +20°C° 0 mm 1 m/S 758 mmHg 38%
    11:00 +22°C° 0 mm 1 m/S 758 mmHg 32%
    12:00 +23°C° 0 mm 1 m/S 757 mmHg 29%
    13:00 +24°C° 0 mm 2 m/S 757 mmHg 26%
    14:00 +24°C° 0 mm 2 m/S 756 mmHg 24%
    15:00 +24°C° 0 mm 2 m/S 756 mmHg 24%
    16:00 +23°C° 0 mm 2 m/S 756 mmHg 25%
    17:00 +21°C° 0 mm 2 m/S 756 mmHg 26%
    18:00 +20°C° 0 mm 2 m/S 756 mmHg 28%
    19:00 +19°C° 0 mm 2 m/S 757 mmHg 29%
    20:00 +18°C° 0 mm 2 m/S 757 mmHg 31%
    21:00 +17°C° 0 mm 2 m/S 757 mmHg 31%
    22:00 +17°C° 0 mm 2 m/S 757 mmHg 31%
    23:00 +16°C° 0 mm 2 m/S 757 mmHg 31%

    Morgen, 15 Dezember, Samstag

    Zeit Temperatur Niederschläge Wind Luftdruck Luftfeuchtigkeit
    00:00 +16°C° 0 mm 2 m/S 757 mmHg 30%
    01:00 +15°C° 0 mm 2 m/S 757 mmHg 29%
    02:00 +15°C° 0 mm 2 m/S 757 mmHg 28%
    03:00 +14°C° 0 mm 2 m/S 757 mmHg 29%
    04:00 +14°C° 0 mm 2 m/S 757 mmHg 29%
    05:00 +14°C° 0 mm 2 m/S 757 mmHg 29%
    06:00 +14°C° 0 mm 2 m/S 757 mmHg 28%
    07:00 +14°C° 0 mm 2 m/S 757 mmHg 28%
    08:00 +14°C° 0 mm 2 m/S 758 mmHg 27%
    09:00 +18°C° 0 mm 1 m/S 758 mmHg 24%
    10:00 +20°C° 0 mm 1 m/S 758 mmHg 21%
    11:00 +22°C° 0 mm 1 m/S 758 mmHg 18%
    12:00 +23°C° 0 mm 1 m/S 758 mmHg 17%
    13:00 +23°C° 0 mm 1 m/S 757 mmHg 16%
    14:00 +24°C° 0 mm 1 m/S 756 mmHg 15%
    15:00 +23°C° 0 mm 1 m/S 756 mmHg 17%
    16:00 +22°C° 0 mm 1 m/S 756 mmHg 18%
    17:00 +21°C° 0 mm 1 m/S 756 mmHg 19%
    18:00 +20°C° 0 mm 1 m/S 756 mmHg 20%
    19:00 +19°C° 0 mm 1 m/S 757 mmHg 21%
    20:00 +18°C° 0 mm 1 m/S 757 mmHg 23%
    21:00 +17°C° 0 mm 2 m/S 757 mmHg 23%
    22:00 +16°C° 0 mm 2 m/S 757 mmHg 24%
    23:00 +16°C° 0 mm 3 m/S 757 mmHg 24%

    übermorgen, 16 Dezember, Sonntag

    Zeit Temperatur Niederschläge Wind Luftdruck Luftfeuchtigkeit
    00:00 +15°C° 0 mm 2 m/S 757 mmHg 25%
    01:00 +15°C° 0 mm 2 m/S 757 mmHg 25%
    02:00 +14°C° 0 mm 2 m/S 757 mmHg 25%
    03:00 +13°C° 0 mm 2 m/S 757 mmHg 25%
    04:00 +13°C° 0 mm 1 m/S 756 mmHg 26%
    05:00 +13°C° 0 mm 1 m/S 756 mmHg 26%
    06:00 +13°C° 0 mm 1 m/S 757 mmHg 26%
    07:00 +13°C° 0 mm 1 m/S 757 mmHg 25%
    08:00 +14°C° 0 mm 1 m/S 757 mmHg 25%
    09:00 +16°C° 0 mm 1 m/S 758 mmHg 22%
    10:00 +19°C° 0 mm 1 m/S 758 mmHg 18%
    11:00 +22°C° 0 mm 1 m/S 758 mmHg 15%
    12:00 +23°C° 0 mm 2 m/S 757 mmHg 13%
    13:00 +24°C° 0 mm 2 m/S 756 mmHg 11%
    14:00 +25°C° 0 mm 2 m/S 755 mmHg 9%
    15:00 +24°C° 0 mm 2 m/S 755 mmHg 10%
    16:00 +23°C° 0 mm 2 m/S 755 mmHg 10%
    17:00 +21°C° 0 mm 2 m/S 755 mmHg 11%
    18:00 +19°C° 0 mm 2 m/S 755 mmHg 11%
    19:00 +18°C° 0 mm 2 m/S 756 mmHg 11%
    20:00 +17°C° 0 mm 2 m/S 756 mmHg 12%
    21:00 +16°C° 0 mm 1 m/S 756 mmHg 12%
    22:00 +15°C° 0 mm 1 m/S 756 mmHg 12%
    23:00 +14°C° 0 mm 1 m/S 756 mmHg 12%

    17 Dezember, Montag

    Zeit Temperatur Niederschläge Wind Luftdruck Luftfeuchtigkeit
    00:00 +14°C° 0 mm 1 m/S 756 mmHg 12%
    01:00 +14°C° 0 mm 1 m/S 756 mmHg 12%
    02:00 +13°C° 0 mm 1 m/S 755 mmHg 12%
    03:00 +13°C° 0 mm 1 m/S 755 mmHg 13%
    04:00 +13°C° 0 mm 1 m/S 755 mmHg 13%
    05:00 +12°C° 0 mm 2 m/S 755 mmHg 13%
    06:00 +13°C° 0 mm 1 m/S 755 mmHg 13%
    07:00 +13°C° 0 mm 1 m/S 756 mmHg 13%
    08:00 +13°C° 0 mm 1 m/S 756 mmHg 12%
    09:00 +16°C° 0 mm 1 m/S 756 mmHg 11%
    10:00 +20°C° 0 mm 1 m/S 756 mmHg 9%
    11:00 +22°C° 0 mm 1 m/S 756 mmHg 7%
    12:00 +23°C° 0 mm 1 m/S 756 mmHg 7%
    13:00 +24°C° 0 mm 1 m/S 755 mmHg 6%
    14:00 +25°C° 0 mm 1 m/S 754 mmHg 6%
    15:00 +24°C° 0 mm 1 m/S 754 mmHg 7%
    16:00 +22°C° 0 mm 1 m/S 754 mmHg 8%
    17:00 +21°C° 0 mm 1 m/S 754 mmHg 8%
    18:00 +20°C° 0 mm 1 m/S 754 mmHg 9%
    19:00 +18°C° 0 mm 1 m/S 754 mmHg 9%
    20:00 +16°C° 0 mm 1 m/S 755 mmHg 10%
    21:00 +15°C° 0 mm 1 m/S 755 mmHg 10%
    22:00 +15°C° 0 mm 1 m/S 755 mmHg 10%
    23:00 +13°C° 0 mm 0 m/S 755 mmHg 11%

    18 Dezember, Dienstag

    Zeit Temperatur Niederschläge Wind Luftdruck Luftfeuchtigkeit
    00:00 +14°C° 0 mm 1 m/S 755 mmHg 11%
    01:00 +14°C° 0 mm 1 m/S 754 mmHg 11%
    02:00 +14°C° 0 mm 1 m/S 754 mmHg 11%
    03:00 +13°C° 0 mm 1 m/S 754 mmHg 11%
    04:00 +13°C° 0 mm 1 m/S 754 mmHg 11%
    05:00 +12°C° 0 mm 1 m/S 754 mmHg 12%
    06:00 +13°C° 0 mm 1 m/S 754 mmHg 12%
    07:00 +12°C° 0 mm 0 m/S 755 mmHg 12%
    08:00 +12°C° 0 mm 0 m/S 755 mmHg 12%
    09:00 +15°C° 0 mm 0 m/S 755 mmHg 10%
    10:00 +20°C° 0 mm 1 m/S 755 mmHg 8%
    11:00 +23°C° 0 mm 1 m/S 755 mmHg 7%
    12:00 +24°C° 0 mm 1 m/S 755 mmHg 6%
    13:00 +25°C° 0 mm 1 m/S 754 mmHg 5%
    14:00 +26°C° 0 mm 1 m/S 753 mmHg 5%
    15:00 +25°C° 0 mm 1 m/S 753 mmHg 6%
    16:00 +23°C° 0 mm 1 m/S 752 mmHg 7%
    17:00 +19°C° 0 mm 0 m/S 752 mmHg 8%
    18:00 +18°C° 0 mm 0 m/S 752 mmHg 8%
    19:00 +19°C° 0 mm 1 m/S 753 mmHg 8%
    20:00 +18°C° 0 mm 1 m/S 753 mmHg 8%
    21:00 +18°C° 0 mm 1 m/S 753 mmHg 8%
    22:00 +16°C° 0 mm 1 m/S 753 mmHg 8%
    23:00 +16°C° 0 mm 1 m/S 753 mmHg 9%

    19 Dezember, Mittwoch

    Zeit Temperatur Niederschläge Wind Luftdruck Luftfeuchtigkeit
    00:00 +15°C° 0 mm 1 m/S 752 mmHg 9%
    01:00 +15°C° 0 mm 1 m/S 752 mmHg 9%
    02:00 +15°C° 0 mm 1 m/S 752 mmHg 9%
    03:00 +14°C° 0 mm 1 m/S 752 mmHg 10%
    04:00 +14°C° 0 mm 1 m/S 752 mmHg 10%
    05:00 +13°C° 0 mm 1 m/S 752 mmHg 10%
    06:00 +14°C° 0 mm 1 m/S 752 mmHg 10%
    07:00 +14°C° 0 mm 1 m/S 753 mmHg 10%
    08:00 +15°C° 0 mm 2 m/S 753 mmHg 10%
    09:00 +18°C° 0 mm 2 m/S 753 mmHg 9%
    10:00 +21°C° 0 mm 3 m/S 754 mmHg 8%
    11:00 +25°C° 0 mm 4 m/S 754 mmHg 7%
    12:00 +26°C° 0 mm 4 m/S 753 mmHg 6%
    13:00 +27°C° 0 mm 4 m/S 752 mmHg 6%
    14:00 +28°C° 0 mm 4 m/S 752 mmHg 6%
    15:00 +26°C° 0 mm 3 m/S 751 mmHg 6%
    16:00 +25°C° 0 mm 3 m/S 751 mmHg 7%
    17:00 +23°C° 0 mm 2 m/S 751 mmHg 8%
    18:00 +21°C° 0 mm 2 m/S 752 mmHg 8%
    19:00 +20°C° 0 mm 2 m/S 752 mmHg 8%
    20:00 +19°C° 0 mm 3 m/S 752 mmHg 8%
    21:00 +18°C° 0 mm 2 m/S 752 mmHg 8%
    22:00 +17°C° 0 mm 2 m/S 753 mmHg 8%
    23:00 +17°C° 0 mm 2 m/S 753 mmHg 8%
    Mehr zeigen